Location: Moscow Pond
(43.6842°N, 73.2366°W)
Time: 00:54:36
(UTC+00:00)

USA 234 - Pass Details

Date: 08 November 2025
Orbit: 1100 x 1107 km, 123.0° (Epoch: 02 December)

Event Time Altitude Azimuth Distance (km) Brightness Sun altitude
Rises 10:54:10 0° 171° (S) 3,912 6.5 -8.4°
Reaches altitude 10° 10:57:14 10° 186° (S) 2,958 5.7 -7.9°
Maximum altitude 11:02:15 23° 236° (SW) 2,141 4.5 -7.0°
Drops below altitude 10° 11:07:17 10° 287° (WNW) 2,967 4.8 -6.1°
Enters shadow 11:08:18 - 292° (WNW) 3,262 5.0 -5.9°
